Globalstar M084

operational
NORAD ID: 38040 Int'l Des: 2011-080 Owner: GLOBL Country: US Constellation: globalstar
LEOCIRCULAR

Über Globalstar M084

Beschreibung wird geladen...

Live-Position

3D-Globus wird geladen...

Nächste Überflüge

Höhenverlauf

Altitude vs Time

uPlot chart will show altitude changes over time

Zweizeiliger Elementsatz

1 38040U 11080A 25299.52674221 -.00000090 00000-0 77821-4 0 9990
2 38040 52.0039 8.6285 0000271 79.0794 27.0871 12.62264462639256
Epoch: 26. Okt. 2025 • Age: 5 hours

Aktueller Status

Höhe 1413.5 km
Geschwindigkeit 7.16 km/s
Subsatellitenpunkt 11.47°N, 73.79°E
Startdatum 28. Dez. 2011
Alter 13.8 years
Typ communications

Technische Details

Klassifizierung Payload
Masse 715.00 kg
Trockenmasse 500.00 kg
Gesamtmasse 715.00 kg
Länge 4.00 m
Durchmesser 2.00 m
Spannweite 12.00 m
Form Trap Cyl + 2 Pan
Hersteller THALR
Bus-Typ Prisma
Phasenstatus In Orbit
Besitzer/Staat GLOBL/US

Große Konstellationen

Loading constellations...